Tracking 19149 objects as of 20-Apr-2018
HD Live streaming from Space Station
objects crossing your sky now

SL-12 DEB

Track SL-12 DEB now!
10-day predictions


NORAD ID: 42974
Int'l Code: 2010-041P
Perigee: 742.5 km
Apogee: 18,537.2 km
Inclination: 65.2 °
Period: 336.0 minutes
Semi major axis: 16010 km
RCS: Unknown
Launch date: September 2, 2010
Source: Commonwealth of Independent States (former USSR) (CIS)
Launch site: TYURATAM MISSILE AND SPACE COMPLEX (TTMTR)

Note: This is SATELLITE DEBRIS
aabbcc
Your satellite tracking list
Your tracking list is empty




NASA's NSSDC Master Catalog

Two Line Element Set (TLE):
1 42974U 10041P   18109.35918668 +.00000008 +00000-0 -24803-3 0  9996
2 42974 065.2053 098.9366 5557090 072.5873 338.8272 04.28529725009740
Source of the keplerian elements: AFSPC